This is the latest recevied weather packets stored in our database for station/object CRYC. If no packets are shown the sender has not sent any weather packets the latest 10 day(s).
| Time | Temp. | Humidity | Pressure | Rain* | Wind** | Luminosity | Snow |
|---|---|---|---|---|---|---|---|
| 1778117151 | 18.33° C | - | - | 0 mm | 0.89 m/s, 256° | - | - |
| 1778116543 | 18.33° C | - | - | 0 mm | 0.89 m/s, 267° | - | - |
| 1778115931 | 18.33° C | - | - | 0 mm | 0.89 m/s, 242° | - | - |
| 1778114730 | 18.33° C | - | - | 0 mm | 0 m/s | - | - |
| 1778114121 | 18.89° C | - | - | 0 mm | 1.34 m/s, 246° | - | - |
| 1778112915 | 18.89° C | - | - | 0 mm | 2.68 m/s, 252° | - | - |
| 1778112306 | 18.89° C | - | - | 0 mm | 2.68 m/s, 259° | - | - |
| 1778111699 | 18.89° C | - | - | 0 mm | 3.13 m/s, 238° | - | - |
| 1778110496 | 19.44° C | - | - | 0 mm | 2.24 m/s, 236° | - | - |
| 1778109888 | 20° C | - | - | 0 mm | 1.79 m/s, 232° | - | - |
| 1778109283 | 20° C | - | - | 0 mm | 2.68 m/s, 240° | - | - |
| 1778108675 | 20° C | - | - | 0 mm | 3.58 m/s, 255° | - | - |
| 1778108069 | 20° C | - | - | 0 mm | 3.58 m/s, 242° | - | - |
| 1778107465 | 20.56° C | - | - | 0 mm | 4.47 m/s, 246° | - | - |
| 1778106859 | 20.56° C | - | - | 0 mm | 4.02 m/s, 233° | - | - |
| 1778106254 | 20.56° C | - | - | 0 mm | 4.02 m/s, 255° | - | - |
| 1778105644 | 21.11° C | - | - | 0 mm | 4.47 m/s, 259° | - | - |
| 1778105036 | 21.11° C | - | - | 0 mm | 4.02 m/s, 243° | - | - |
| 1778104432 | 21.67° C | - | - | 0 mm | 4.92 m/s, 225° | - | - |
| 1778103816 | 21.11° C | - | - | 0 mm | 3.58 m/s, 270° | - | - |
| 1778103210 | 22.22° C | - | - | 0 mm | 4.92 m/s, 259° | - | - |
| 1778102603 | 21.67° C | - | - | 0 mm | 4.47 m/s, 252° | - | - |
| 1778101996 | 21.67° C | - | - | 0 mm | 5.81 m/s, 255° | - | - |
| 1778101391 | 22.78° C | - | - | 0 mm | 5.81 m/s, 256° | - | - |
| 1778100784 | 23.33° C | - | - | 0 mm | 7.15 m/s, 259° | - | - |
* Rain latest hour (hover to see other rain measurements)
** Current wind speed in m/s (hover to see current wind gust speed)